Weather in Synivka

Ukraine / Sumi District     50°32′36″N   34°06′24″E
temp.,
°C
wind,
m/s
gust,
m/s
humid.,
%
clouds,
%
prec.,
mm/h
press.,
hPa
HPBL,
m
27 october, wed
wed2700:00+2ssw411625 0.0 1029180
03:00+1ssw410635 0.0 1028174
06:00+1ssw411695 0.0 1027212
09:00+3ssw512690 0.0 1026351
12:00+8sw796531 0.0 1025781
15:00+10wsw686056 0.0 10231129
18:00+6wsw347762 0.0 102345
21:00+8w356756 0.0 1023131
28 october, thu
thu2800:00+5wnw337888 0.0 102432
03:00+4w348684 0.0 102454
06:00+4wsw3792100 0.0 1023124
09:00+6sw51182100 0.1 1022296
12:00+10w61069100 0.0 1021598
15:00+11wnw51074100 0.0 1020669
18:00+10wnw498099 0.0 1021418
21:00+8nw499498 0.1 1023262
29 october, fri
fri2900:00+7nw35944 0.0 102482
03:00+6nnw36966 0.0 1025114
06:00+5nne35935 0.0 102778
09:00+6nne36815 0.0 1028154
12:00+11ene34570 0.0 1029622
15:00+12ene33530 0.0 1029890
18:00+8ene22730 0.0 102917
21:00+6e33830 0.0 103044
30 october, sat
sat3000:00+5se35900 0.0 103173
03:00+4se34920 0.0 103252
06:00+4se34920 0.0 103256
09:00+5sse35880 0.0 1033136
12:00+11sse45620 0.0 1032567
15:00+13sse34520 0.0 1031902
18:00+9sse33670 0.0 103229
21:00+7se33700 0.0 103234
31 october, sun
sun3100:00+6sse33750 0.0 103234
03:00+5se33770 0.0 103227
05:00+4se33820 0.0 103131
08:00+5ese36800 0.0 1031165
11:00+11se46580 0.0 1030599
14:00+13se45470 0.0 1027835
17:00+8ese46620 0.0 102783
20:00+7ese49720 0.0 1027147